Overview Statistics Trail Chart Weather Telemetry Raw packets
 

This is the latest recevied weather packets stored in our database for station/object LY3FF-10. If no packets are shown the sender has not sent any weather packets the latest 10 day(s).

<< 29 30 31 32 33 34 35 >>
Time Temp. Humidity Pressure Rain* Wind** Luminosity Snow
1788008090 23.89° C 49% 993 hPa - - - -
1788007234 29.44° C 49% 993.1 hPa - - - -
1788006340 30.56° C 48% 993.1 hPa - - - -
1788005473 25° C 48% 993.2 hPa - - - -
1788004690 24.44° C 49% 993.3 hPa - - - -
1788003864 34.44° C 49% 993.2 hPa - - - -
1788003140 35.56° C 50% 993.5 hPa - - - -
1788002264 36.11° C 49% 993.5 hPa - - - -
1788001510 34.44° C 51% 993.8 hPa - - - -
1788000635 31.67° C 51% 994 hPa - - - -
1787999825 23.89° C 50% 994 hPa - - - -
1787999014 23.33° C 52% 994 hPa - - - -
1787998219 30° C 53% 994 hPa - - - -
1787997455 29.44° C 54% 994.2 hPa - - - -
1787996680 22.78° C 55% 994.2 hPa - - - -
1787995924 22.78° C 55% 994.4 hPa - - - -
1787995154 24.44° C 55% 994.7 hPa - - - -
1787994404 22.22° C 54% 994.9 hPa - - - -
1787993560 23.33° C 56% 995.1 hPa - - - -
1787992695 22.78° C 57% 995.1 hPa - - - -
1787991872 21.11° C 57% 995.2 hPa - - - -
1787991053 20.56° C 58% 995.4 hPa - - - -
1787990220 21.11° C 58% 995.3 hPa - - - -
1787989345 20.56° C 59% 995.5 hPa - - - -
1787988494 20.56° C 60% 995.5 hPa - - - -

* Rain since midnight (hover to see other rain measurements)
** Current wind speed in m/s (hover to see current wind gust speed)